STARLINK-1227, 45230

Orbit data source: Space-Track

STARLINK-1227, 45230 is a payload satellite owned by SpaceX/Seattle (US) in LEO that was launched on Mon, 17 Feb 2020 UTC via an FALCON 9 launch vehicle from the Air Force Eastern Test Range (AFETR). Payload-class satellites include a variety of spacecraft equipped with specific instruments for various scientific and technological missions. These include communications satellites like Starlink; space stations such as the ISS; scientific satellites like the Hubble; Earth observation satellites from companies like Planet Labs, Umbra, and HawkEye 360; GPS; miniature CubeSats for education and research; and military/defense satellites.

Loading next visibility...
Identifier
45230, 2020-012BE
Orbit
LEO
Country
Flag of USUS
Related business
Manufacturer
SpaceX/Seattle
Mission
Operational Commercial Communications
Bus & Motor
STARLINK, Unknown motor
Mass
260 kg wet, ~248 kg dry
Launch date (UTC)
2020-02-17 (6 years ago)
Launch vehicle
FALCON 9
Launch site
Air Force Eastern Test Range (AFETR)
Object type
Payload
Rocket body
Debris
Shape & HBR
Box + 1 Pan, 4.4 m
Radar Cross Section
13.562 m², Large (>1 m²)

Expand to show TLE details & history
Last TLE update: 1 day ago

TLE from 1 day ago
0 STARLINK-1227
1 45230U 20012BE  25260.66298015  .00002757  00000-0  20385-3 0  9993
2 45230  53.0555  63.3631 0001347  93.0478 267.0665 15.06414980309335
Epoch: 2025-09-17T15:54Z
TLE epoch observation values (Epoch: 2025-09-17T15:54:41.484Z)
Latitude
-0.00006°
Longitude
-172.1455°
Altitude
548.093 km
Speed
7.589 km/s
True Right ascension
04h 13m 27s
True Declination
0° 00' 00"
Sunlit
Object was in daylight at epoch
Visualization orbit readout
Latitude
Unknown
Longitude
Unknown
Altitude
Unknown
Speed
Unknown
Apparent Right ascension
Unknown
Apparent Declination
Unknown
Sunlit
N/A
Visualization observer readout
Local Sidereal Time
09:08:10
Azimuth
Unknown
Elevation
Unknown
Doppler factor
Unknown
Orbital elements
Apogee altitude
548.369 km
Perigee altitude
546.503 km
Semi-major axis
6,925.573 km
Eccentricity
0.00013
Inclination
53.0555°
RAAN
63.3631°
Arg. of periapsis
93.0478°
True anomaly
267.05108°
Mean anomaly
267.0665°
Eccentric anomaly
267.05879°
Mean motion
3.76582 °/min
Orbital period
95.6 mins
BSTAR
0.00020385
Loading maneuver chart data...
Computing Atmospheric mass density...

Documentation

Showing up to 5 results
|